DW9727 Weather Reports


Display with metric or nautical units.
time (UTC)temp
F
wind
direction
speed
MPH
gust
MPH
rain 1hr
in
rain 24hr
in
rain mn
in
humidity
%
barometer
mb
20260905211710 92 125 10.0 18.0 0.00 0.00 0.00 60 1009.3
20260905210710 92 183 13.0 21.0 0.00 0.00 0.00 59 1009.3
20260905205711 91 147 9.0 22.0 0.00 0.00 0.00 62 1009.4
20260905204711 91 136 11.0 20.0 0.00 0.00 0.00 62 1009.4
20260905203710 90 122 15.0 21.0 0.00 0.00 0.00 61 1009.5
20260905202710 90 114 13.0 22.0 0.00 0.00 0.00 62 1009.6
20260905201711 90 131 9.0 20.0 0.00 0.00 0.00 62 1010.1
20260905200711 90 107 9.0 20.0 0.00 0.00 0.00 63 1010.6
20260905195710 89 149 12.0 23.0 0.00 0.00 0.00 62 1010.7
20260905194711 89 107 11.0 20.0 0.00 0.00 0.00 62 1010.9
20260905193710 89 93 7.0 15.0 0.00 0.00 0.00 60 1011.2
20260905192710 89 99 12.0 20.0 0.00 0.00 0.00 57 1011.4
20260905191711 88 132 12.0 17.0 0.00 0.00 0.00 59 1011.5
20260905190710 88 114 9.0 20.0 0.00 0.00 0.00 59 1011.7
20260905185711 87 153 11.0 20.0 0.00 0.00 0.00 58 1011.9
20260905183710 87 75 12.0 20.0 0.00 0.00 0.00 58 1012.5
20260905182711 86 78 7.0 18.0 0.00 0.00 0.00 60 1012.6
20260905175711 85 92 11.0 21.0 0.00 0.00 0.00 66 1013.1
20260905174711 84 121 12.0 23.0 0.00 0.00 0.00 69 1013.0
20260905173710 84 133 11.0 20.0 0.00 0.00 0.00 70 1013.0
20260905172710 84 77 13.0 22.0 0.00 0.00 0.00 67 1012.8
20260905171710 84 109 12.0 21.0 0.00 0.00 0.00 67 1013.0
20260905170710 84 60 6.0 15.0 0.00 0.00 0.00 76 1012.9
20260905165710 83 11 7.0 21.0 0.00 0.00 0.00 75 1013.0
20260905164711 83 30 10.0 20.0 0.00 0.00 0.00 76 1013.1
20260905163710 84 57 8.0 20.0 0.00 0.00 0.00 75 1012.9
20260905162710 84 67 7.0 23.0 0.00 0.00 0.00 77 1013.1
20260905161710 83 33 10.0 21.0 0.00 0.00 0.00 78 1013.1
20260905160711 83 62 11.0 21.0 0.00 0.00 0.00 77 1013.3
20260905155710 83 29 12.0 24.0 0.00 0.00 0.00 76 1013.2
20260905154711 83 34 13.0 21.0 0.00 0.00 0.00 75 1012.8
20260905153710 83 325 6.0 18.0 0.00 0.00 0.00 74 1012.7
20260905152711 83 30 7.0 12.0 0.00 0.00 0.00 72 1012.6
20260905150711 84 60 6.0 13.0 0.00 0.00 0.00 70 1012.1
20260905144711 83 25 2.0 9.0 0.00 0.00 0.00 74 1012.1
20260905143710 82 15 5.0 12.0 0.00 0.00 0.00 74 1012.1
20260905142710 81 333 2.0 6.0 0.00 0.00 0.00 76 1011.8
20260905141711 80 20 3.0 6.0 0.00 0.00 0.00 79 1011.6
20260905140711 78 165 3.0 12.0 0.00 0.00 0.00 81 1011.6
20260905135711 77 46 1.0 12.0 0.00 0.00 0.00 83 1011.3
20260905134710 76 47 6.0 12.0 0.00 0.00 0.00 83 1011.8
20260905132711 75 34 2.0 3.0 0.00 0.00 0.00 84 1010.8
20260905131711 75 45 1.0 3.0 0.00 0.00 0.00 85 1010.4
20260905130711 74 53 1.0 2.0 0.00 0.00 0.00 87 1010.2
20260905125711 73 53 0.0 2.0 0.00 0.00 0.00 87 1010.0
20260905124711 73 53 0.0 0.0 0.00 0.00 0.00 87 1009.9
20260905123711 73 53 0.0 2.0 0.00 0.00 0.00 87 1009.9
20260905122711 73 53 0.0 3.0 0.00 0.00 0.00 87 1009.8
20260905120710 73 97 1.0 2.0 0.00 0.00 0.00 86 1009.6
20260905115711 73 83 1.0 2.0 0.00 0.00 0.00 87 1009.3
20260905114711 73 83 1.0 2.0 0.00 0.00 0.00 86 1009.1
20260905113710 73 80 1.0 2.0 0.00 0.00 0.00 85 1008.9
20260905112710 73 165 0.0 1.0 0.00 0.00 0.00 84 1008.8
20260905110711 74 173 1.0 3.0 0.00 0.00 0.00 84 1008.9
20260905105711 74 182 2.0 3.0 0.00 0.00 0.00 83 1008.8
20260905104710 74 170 0.0 0.0 0.00 0.00 0.00 83 1009.1
20260905103711 75 170 0.0 0.0 0.00 0.00 0.00 82 1009.1
20260905102711 75 173 1.0 2.0 0.00 0.00 0.00 82 1009.1
20260905101710 75 173 0.0 3.0 0.00 0.00 0.00 82 1009.0
20260905100710 75 159 1.0 5.0 0.00 0.00 0.00 82 1008.8
20260905093710 76 179 4.0 9.0 0.00 0.00 0.00 81 1008.7
20260905091711 77 172 6.0 9.0 0.00 0.00 0.00 80 1008.6
20260905090710 77 178 5.0 8.0 0.00 0.00 0.00 80 1008.8
20260905085711 77 165 5.0 7.0 0.00 0.00 0.00 80 1008.8
20260905083711 78 167 5.0 7.0 0.00 0.00 0.00 79 1009.1
20260905082711 78 175 5.0 6.0 0.00 0.00 0.00 79 1009.1
20260905081711 78 155 3.0 7.0 0.00 0.00 0.00 79 1009.2
20260905075711 78 151 2.0 6.0 0.00 0.00 0.00 79 1009.3
20260905074710 78 134 3.0 6.0 0.00 0.00 0.00 79 1009.4
20260905073711 78 126 3.0 3.0 0.00 0.00 0.00 79 1009.3
20260905072711 79 119 2.0 3.0 0.00 0.00 0.00 80 1009.6
20260905071710 79 136 2.0 3.0 0.00 0.00 0.00 79 1009.6
20260905065710 79 142 1.0 3.0 0.00 0.00 0.00 80 1009.8
20260905064711 79 142 1.0 5.0 0.00 0.00 0.00 80 1009.7
20260905063710 80 149 1.0 3.0 0.00 0.00 0.00 80 1009.7
20260905062711 80 149 0.0 2.0 0.00 0.00 0.00 79 1009.7
20260905061711 80 149 0.0 2.0 0.00 0.00 0.00 79 1009.9
20260905060711 81 149 1.0 2.0 0.00 0.00 0.00 79 1009.9
20260905054710 81 149 1.0 3.0 0.00 0.00 0.00 78 1010.0
20260905053711 82 169 2.0 6.0 0.00 0.00 0.00 77 1009.8
20260905052711 82 153 3.0 6.0 0.00 0.00 0.00 77 1009.8
20260905051710 82 144 3.0 7.0 0.00 0.00 0.00 76 1009.7
20260905050710 83 158 3.0 6.0 0.00 0.00 0.00 76 1009.8
20260905045710 83 135 2.0 5.0 0.00 0.00 0.00 76 1009.6
20260905044711 83 146 3.0 6.0 0.00 0.00 0.00 76 1009.4
20260905043711 83 114 2.0 5.0 0.00 0.00 0.00 76 1009.5
20260905042710 84 157 2.0 6.0 0.00 0.00 0.00 76 1009.5
20260905041711 84 148 3.0 7.0 0.00 0.00 0.00 75 1009.4
20260905040711 84 153 3.0 6.0 0.00 0.00 0.00 76 1009.4
20260905035711 84 134 2.0 5.0 0.00 0.00 0.00 76 1009.5
20260905034711 85 162 2.0 3.0 0.00 0.00 0.00 76 1009.5
20260905033711 85 141 2.0 3.0 0.00 0.00 0.00 76 1009.3
20260905032711 85 154 1.0 3.0 0.00 0.00 0.00 76 1009.3
20260905031710 85 146 2.0 6.0 0.00 0.00 0.00 76 1009.1
20260905025710 85 105 2.0 3.0 0.00 0.00 0.00 76 1009.1
20260905024710 86 74 1.0 2.0 0.00 0.00 0.00 74 1008.9
20260905023711 86 96 1.0 3.0 0.00 0.00 0.00 73 1008.9
20260905021711 87 117 0.0 3.0 0.00 0.00 0.00 71 1008.8
20260905020711 87 123 1.0 3.0 0.00 0.00 0.00 71 1008.5
20260905014710 88 63 0.0 3.0 0.00 0.00 0.00 69 1008.5
20260905013710 88 113 2.0 6.0 0.00 0.00 0.00 68 1008.4
20260905012711 89 118 3.0 6.0 0.00 0.00 0.00 67 1008.3
20260905011711 89 104 1.0 3.0 0.00 0.00 0.00 66 1008.4
20260905010711 90 172 1.0 2.0 0.00 0.00 0.00 65 1008.4
20260905005711 90 172 2.0 6.0 0.00 0.00 0.00 64 1008.5
20260905004710 91 148 2.0 3.0 0.00 0.00 0.00 62 1008.5
20260905001710 91 159 2.0 6.0 0.00 0.00 0.00 60 1008.4
20260905000711 92 132 3.0 5.0 0.00 0.00 0.00 58 1008.1
20260904235711 92 123 3.0 7.0 0.00 0.00 0.00 57 1008.0
20260904234711 93 151 5.0 10.0 0.00 0.00 0.00 57 1007.9
20260904232711 94 157 5.0 10.0 0.00 0.00 0.00 55 1007.9
20260904231711 94 178 4.0 7.0 0.00 0.00 0.00 55 1007.9
20260904230710 94 128 4.0 7.0 0.00 0.00 0.00 53 1008.1
20260904225711 93 161 5.0 9.0 0.00 0.00 0.00 55 1008.1
20260904224711 93 149 4.0 8.0 0.00 0.00 0.00 57 1008.1
20260904223710 93 160 1.0 5.0 0.00 0.00 0.00 57 1008.1
20260904222711 93 141 3.0 7.0 0.00 0.00 0.00 56 1008.1
20260904221711 93 168 5.0 9.0 0.00 0.00 0.00 55 1008.2
20260904220711 94 135 5.0 12.0 0.00 0.00 0.00 53 1008.1
20260904215711 95 165 7.0 13.0 0.00 0.00 0.00 52 1008.2
20260904214711 96 171 6.0 13.0 0.00 0.00 0.00 54 1008.1
20260904212710 95 167 6.0 12.0 0.00 0.00 0.00 53 1008.3